Year,Month,Day,Hour,Minute,Value (Times are PST for temperature in C)
2016,05,27,00,00,10.90
2016,05,27,00,01,10.90
2016,05,27,00,02,10.90
2016,05,27,00,03,10.90
2016,05,27,00,04,10.90
2016,05,27,00,05,10.80
2016,05,27,00,06,10.80
2016,05,27,00,07,10.80
2016,05,27,00,08,10.70
2016,05,27,00,09,10.70
2016,05,27,00,10,10.70
2016,05,27,00,11,10.60
2016,05,27,00,12,10.60
2016,05,27,00,13,10.60
2016,05,27,00,14,10.60
2016,05,27,00,15,10.60
2016,05,27,00,16,10.50
2016,05,27,00,17,10.50
2016,05,27,00,18,10.50
2016,05,27,00,19,10.50
2016,05,27,00,20,10.40
2016,05,27,00,21,10.40
2016,05,27,00,22,10.40
2016,05,27,00,23,10.40
2016,05,27,00,24,10.40
2016,05,27,00,25,10.40
2016,05,27,00,26,10.30
2016,05,27,00,27,10.30
2016,05,27,00,28,10.30
2016,05,27,00,29,10.20
2016,05,27,00,30,10.20
2016,05,27,00,31,10.20
2016,05,27,00,32,10.20
2016,05,27,00,33,10.10
2016,05,27,00,34,10.10
2016,05,27,00,35,10.10
2016,05,27,00,36,10.00
2016,05,27,00,37,10.00
2016,05,27,00,38,9.90
2016,05,27,00,39,9.90
2016,05,27,00,40,9.90
2016,05,27,00,41,9.90
2016,05,27,00,42,9.80
2016,05,27,00,43,9.80
2016,05,27,00,44,9.80
2016,05,27,00,45,9.80
2016,05,27,00,46,9.70
2016,05,27,00,47,9.70
2016,05,27,00,48,9.70
2016,05,27,00,49,9.70
2016,05,27,00,50,9.60
2016,05,27,00,51,9.60
2016,05,27,00,52,9.60
2016,05,27,00,53,9.60
2016,05,27,00,54,9.50
2016,05,27,00,55,9.50
2016,05,27,00,56,9.50
2016,05,27,00,57,9.50
2016,05,27,00,58,9.40
2016,05,27,00,59,9.40
2016,05,27,01,00,9.40
2016,05,27,01,01,9.40
2016,05,27,01,02,9.30
2016,05,27,01,03,9.30
2016,05,27,01,04,9.30
2016,05,27,01,05,9.20
2016,05,27,01,06,9.20
2016,05,27,01,07,9.20
2016,05,27,01,08,9.10
2016,05,27,01,09,9.10
2016,05,27,01,10,9.10
2016,05,27,01,11,9.00
2016,05,27,01,12,9.00
2016,05,27,01,13,8.90
2016,05,27,01,14,8.90
2016,05,27,01,15,8.80
2016,05,27,01,16,8.70
2016,05,27,01,17,8.60
2016,05,27,01,18,8.50
2016,05,27,01,19,8.40
2016,05,27,01,20,8.40
2016,05,27,01,21,8.30
2016,05,27,01,22,8.30
2016,05,27,01,23,8.20
2016,05,27,01,24,8.20
2016,05,27,01,25,8.10
2016,05,27,01,26,8.10
2016,05,27,01,27,8.10
2016,05,27,01,28,8.10
2016,05,27,01,29,8.00
2016,05,27,01,30,8.00
2016,05,27,01,31,8.00
2016,05,27,01,32,7.90
2016,05,27,01,33,7.90
2016,05,27,01,34,7.80
2016,05,27,01,35,7.80
2016,05,27,01,36,7.80
2016,05,27,01,37,7.80
2016,05,27,01,38,7.80
2016,05,27,01,39,7.80
2016,05,27,01,40,7.70
2016,05,27,01,41,7.70
2016,05,27,01,42,7.70
2016,05,27,01,43,7.70
2016,05,27,01,44,7.70
2016,05,27,01,45,7.70
2016,05,27,01,46,7.70
2016,05,27,01,47,7.70
2016,05,27,01,48,7.70
2016,05,27,01,49,7.70
2016,05,27,01,50,7.60
2016,05,27,01,51,7.50
2016,05,27,01,52,7.50
2016,05,27,01,53,7.40
2016,05,27,01,54,7.30
2016,05,27,01,55,7.30
2016,05,27,01,56,7.20
2016,05,27,01,57,7.20
2016,05,27,01,58,7.20
2016,05,27,01,59,7.10
2016,05,27,02,00,7.10
2016,05,27,02,01,7.10
2016,05,27,02,02,7.10
2016,05,27,02,03,7.10
2016,05,27,02,04,7.10
2016,05,27,02,05,7.10
2016,05,27,02,06,7.00
2016,05,27,02,07,7.00
2016,05,27,02,08,7.00
2016,05,27,02,09,7.00
2016,05,27,02,10,7.00
2016,05,27,02,11,6.90
2016,05,27,02,12,6.90
2016,05,27,02,13,6.90
2016,05,27,02,14,6.90
2016,05,27,02,15,6.90
2016,05,27,02,16,6.90
2016,05,27,02,17,6.80
2016,05,27,02,18,6.80
2016,05,27,02,19,6.80
2016,05,27,02,20,6.70
2016,05,27,02,21,6.70
2016,05,27,02,22,6.70
2016,05,27,02,23,6.70
2016,05,27,02,24,6.70
2016,05,27,02,25,6.60
2016,05,27,02,26,6.60
2016,05,27,02,27,6.60
2016,05,27,02,28,6.60
2016,05,27,02,29,6.50
2016,05,27,02,30,6.50
2016,05,27,02,31,6.40
2016,05,27,02,32,6.40
2016,05,27,02,33,6.40
2016,05,27,02,34,6.40
2016,05,27,02,35,6.40
2016,05,27,02,36,6.30
2016,05,27,02,37,6.30
2016,05,27,02,38,6.30
2016,05,27,02,39,6.30
2016,05,27,02,40,6.30
2016,05,27,02,41,6.30
2016,05,27,02,42,6.30
2016,05,27,02,43,6.30
2016,05,27,02,44,6.30
2016,05,27,02,45,6.30
2016,05,27,02,46,6.30
2016,05,27,02,47,6.30
2016,05,27,02,48,6.20
2016,05,27,02,49,6.20
2016,05,27,02,50,6.20
2016,05,27,02,51,6.20
2016,05,27,02,52,6.20
2016,05,27,02,53,6.20
2016,05,27,02,54,6.20
2016,05,27,02,55,6.20
2016,05,27,02,56,6.20
2016,05,27,02,57,6.20
2016,05,27,02,58,6.20
2016,05,27,02,59,6.20
2016,05,27,03,00,6.20
2016,05,27,03,01,6.10
2016,05,27,03,02,6.10
2016,05,27,03,03,6.10
2016,05,27,03,04,6.20
2016,05,27,03,05,6.20
2016,05,27,03,06,6.20
2016,05,27,03,07,6.20
2016,05,27,03,08,6.20
2016,05,27,03,09,6.20
2016,05,27,03,10,6.20
2016,05,27,03,11,6.20
2016,05,27,03,12,6.20
2016,05,27,03,13,6.20
2016,05,27,03,14,6.20
2016,05,27,03,15,6.20
2016,05,27,03,16,6.20
2016,05,27,03,17,6.20
2016,05,27,03,18,6.20
2016,05,27,03,19,6.10
2016,05,27,03,20,6.10
2016,05,27,03,21,6.10
2016,05,27,03,22,6.00
2016,05,27,03,23,5.90
2016,05,27,03,24,5.80
2016,05,27,03,25,5.70
2016,05,27,03,26,5.70
2016,05,27,03,27,5.60
2016,05,27,03,28,5.50
2016,05,27,03,29,5.50
2016,05,27,03,30,5.40
2016,05,27,03,31,5.40
2016,05,27,03,32,5.40
2016,05,27,03,33,5.30
2016,05,27,03,34,5.30
2016,05,27,03,35,5.20
2016,05,27,03,36,5.20
2016,05,27,03,37,5.20
2016,05,27,03,38,5.20
2016,05,27,03,39,5.20
2016,05,27,03,40,5.20
2016,05,27,03,41,5.20
2016,05,27,03,42,5.20
2016,05,27,03,43,5.20
2016,05,27,03,44,5.20
2016,05,27,03,45,5.20
2016,05,27,03,46,5.20
2016,05,27,03,47,5.20
2016,05,27,03,48,5.30
2016,05,27,03,49,5.30
2016,05,27,03,50,5.40
2016,05,27,03,51,5.50
2016,05,27,03,52,5.50
2016,05,27,03,53,5.40
2016,05,27,03,54,5.30
2016,05,27,03,55,5.30
2016,05,27,03,56,5.20
2016,05,27,03,57,5.20
2016,05,27,03,58,5.10
2016,05,27,03,59,5.10
2016,05,27,04,00,5.00
2016,05,27,04,01,5.00
2016,05,27,04,02,5.00
2016,05,27,04,03,5.00
2016,05,27,04,04,4.90
2016,05,27,04,05,4.90
2016,05,27,04,06,4.90
2016,05,27,04,07,4.90
2016,05,27,04,08,4.90
2016,05,27,04,09,4.90
2016,05,27,04,10,4.90
2016,05,27,04,11,4.90
2016,05,27,04,12,4.90
2016,05,27,04,13,4.90
2016,05,27,04,14,4.90
2016,05,27,04,15,4.90
2016,05,27,04,16,4.90
2016,05,27,04,17,4.90
2016,05,27,04,18,4.90
2016,05,27,04,19,4.90
2016,05,27,04,20,4.90
2016,05,27,04,21,4.80
2016,05,27,04,22,4.80
2016,05,27,04,23,4.80
2016,05,27,04,24,4.80
2016,05,27,04,25,4.70
2016,05,27,04,26,4.70
2016,05,27,04,27,4.70
2016,05,27,04,28,4.70
2016,05,27,04,29,4.60
2016,05,27,04,30,4.60
2016,05,27,04,31,4.60
2016,05,27,04,32,4.60
2016,05,27,04,33,4.60
2016,05,27,04,34,4.60
2016,05,27,04,35,4.60
2016,05,27,04,36,4.60
2016,05,27,04,37,4.60
2016,05,27,04,38,4.60
2016,05,27,04,39,4.60
2016,05,27,04,40,4.60
2016,05,27,04,41,4.60
2016,05,27,04,42,4.60
2016,05,27,04,43,4.60
2016,05,27,04,44,4.60
2016,05,27,04,45,4.60
2016,05,27,04,46,4.60
2016,05,27,04,47,4.60
2016,05,27,04,48,4.50
2016,05,27,04,49,4.40
2016,05,27,04,50,4.30
2016,05,27,04,51,4.20
2016,05,27,04,52,4.10
2016,05,27,04,53,4.10
2016,05,27,04,54,4.00
2016,05,27,04,55,4.00
2016,05,27,04,56,4.00
2016,05,27,04,57,3.90
2016,05,27,04,58,3.90
2016,05,27,04,59,3.90
2016,05,27,05,00,3.90
2016,05,27,05,01,3.90
2016,05,27,05,02,3.90
2016,05,27,05,03,3.90
2016,05,27,05,04,3.90
2016,05,27,05,05,3.80
2016,05,27,05,06,3.80
2016,05,27,05,07,3.70
2016,05,27,05,08,3.60
2016,05,27,05,09,3.60
2016,05,27,05,10,3.50
2016,05,27,05,11,3.50
2016,05,27,05,12,3.40
2016,05,27,05,13,3.40
2016,05,27,05,14,3.40
2016,05,27,05,15,3.40
2016,05,27,05,16,3.40
2016,05,27,05,17,3.40
2016,05,27,05,18,3.40
2016,05,27,05,19,3.50
2016,05,27,05,20,3.50
2016,05,27,05,21,3.60
2016,05,27,05,22,3.60
2016,05,27,05,23,3.60
2016,05,27,05,24,3.60
2016,05,27,05,25,3.60
2016,05,27,05,26,3.60
2016,05,27,05,27,3.60
2016,05,27,05,28,3.60
2016,05,27,05,29,3.60
2016,05,27,05,30,3.60
2016,05,27,05,31,3.60
2016,05,27,05,32,3.60
2016,05,27,05,33,3.50
2016,05,27,05,34,3.50
2016,05,27,05,35,3.50
2016,05,27,05,36,3.50
2016,05,27,05,37,3.50
2016,05,27,05,38,3.50
2016,05,27,05,39,3.60
2016,05,27,05,40,3.60
2016,05,27,05,41,3.60
2016,05,27,05,42,3.60
2016,05,27,05,43,3.60
2016,05,27,05,44,3.60
2016,05,27,05,45,3.50
2016,05,27,05,46,3.50
2016,05,27,05,47,3.50
2016,05,27,05,48,3.50
2016,05,27,05,49,3.50
2016,05,27,05,50,3.50
2016,05,27,05,51,3.50
2016,05,27,05,52,3.50
2016,05,27,05,53,3.50
2016,05,27,05,54,3.50
2016,05,27,05,55,3.60
2016,05,27,05,56,3.60
2016,05,27,05,57,3.60
2016,05,27,05,58,3.70
2016,05,27,05,59,3.70
2016,05,27,06,00,3.70
2016,05,27,06,01,3.70
2016,05,27,06,02,3.70
2016,05,27,06,03,3.70
2016,05,27,06,04,3.70
2016,05,27,06,05,3.70
2016,05,27,06,06,3.70
2016,05,27,06,07,3.70
2016,05,27,06,08,3.70
2016,05,27,06,09,3.70
2016,05,27,06,10,3.60
2016,05,27,06,11,3.60
2016,05,27,06,12,3.50
2016,05,27,06,13,3.40
2016,05,27,06,14,3.40
2016,05,27,06,15,3.30
2016,05,27,06,16,3.30
2016,05,27,06,17,3.30
2016,05,27,06,18,3.30
2016,05,27,06,19,3.20
2016,05,27,06,20,3.20
2016,05,27,06,21,3.20
2016,05,27,06,22,3.20
2016,05,27,06,23,3.20
2016,05,27,06,24,3.20
2016,05,27,06,25,3.20
2016,05,27,06,26,3.20
2016,05,27,06,27,3.30
2016,05,27,06,28,3.30
2016,05,27,06,29,3.30
2016,05,27,06,30,3.40
2016,05,27,06,31,3.40
2016,05,27,06,32,3.40
2016,05,27,06,33,3.50
2016,05,27,06,34,3.50
2016,05,27,06,35,3.50
2016,05,27,06,36,3.50
2016,05,27,06,37,3.50
2016,05,27,06,38,3.60
2016,05,27,06,39,3.70
2016,05,27,06,40,3.70
2016,05,27,06,41,3.80
2016,05,27,06,42,3.90
2016,05,27,06,43,3.90
2016,05,27,06,44,4.00
2016,05,27,06,45,4.10
2016,05,27,06,46,4.20
2016,05,27,06,47,4.20
2016,05,27,06,48,4.30
2016,05,27,06,49,4.40
2016,05,27,06,50,4.50
2016,05,27,06,51,4.50
2016,05,27,06,52,4.60
2016,05,27,06,53,4.60
2016,05,27,06,54,4.70
2016,05,27,06,55,4.70
2016,05,27,06,56,4.70
2016,05,27,06,57,4.80
2016,05,27,06,58,4.80
2016,05,27,06,59,4.80
2016,05,27,07,00,4.90
2016,05,27,07,01,4.90
2016,05,27,07,02,5.00
2016,05,27,07,03,5.00
2016,05,27,07,04,5.10
2016,05,27,07,05,5.10
2016,05,27,07,06,5.10
2016,05,27,07,07,5.10
2016,05,27,07,08,5.20
2016,05,27,07,09,5.20
2016,05,27,07,10,5.20
2016,05,27,07,11,5.30
2016,05,27,07,12,5.30
2016,05,27,07,13,5.40
2016,05,27,07,14,5.40
2016,05,27,07,15,5.50
2016,05,27,07,16,5.60
2016,05,27,07,17,5.60
2016,05,27,07,18,5.70
2016,05,27,07,19,5.80
2016,05,27,07,20,5.80
2016,05,27,07,21,5.90
2016,05,27,07,22,6.00
2016,05,27,07,23,6.10
2016,05,27,07,24,6.10
2016,05,27,07,25,6.20
2016,05,27,07,26,6.30
2016,05,27,07,27,6.40
2016,05,27,07,28,6.50
2016,05,27,07,29,6.60
2016,05,27,07,30,6.70
2016,05,27,07,31,6.70
2016,05,27,07,32,6.80
2016,05,27,07,33,6.90
2016,05,27,07,34,7.00
2016,05,27,07,35,7.10
2016,05,27,07,36,7.20
2016,05,27,07,37,7.30
2016,05,27,07,38,7.40
2016,05,27,07,39,7.50
2016,05,27,07,40,7.60
2016,05,27,07,41,7.70
2016,05,27,07,42,7.80
2016,05,27,07,43,7.90
2016,05,27,07,44,8.00
2016,05,27,07,45,8.10
2016,05,27,07,46,8.20
2016,05,27,07,47,8.30
2016,05,27,07,48,8.40
2016,05,27,07,49,8.50
2016,05,27,07,50,8.60
2016,05,27,07,51,8.70
2016,05,27,07,52,8.70
2016,05,27,07,53,8.80
2016,05,27,07,54,8.90
2016,05,27,07,55,9.00
2016,05,27,07,56,9.10
2016,05,27,07,57,9.20
2016,05,27,07,58,9.30
2016,05,27,07,59,9.30
2016,05,27,08,00,9.40
2016,05,27,08,01,9.50
2016,05,27,08,02,9.50
2016,05,27,08,03,9.60
2016,05,27,08,04,9.70
2016,05,27,08,05,9.70
2016,05,27,08,06,9.80
2016,05,27,08,07,9.80
2016,05,27,08,08,9.90
2016,05,27,08,09,10.00
2016,05,27,08,10,10.00
2016,05,27,08,11,10.10
2016,05,27,08,12,10.20
2016,05,27,08,13,10.30
2016,05,27,08,14,10.30
2016,05,27,08,15,10.40
2016,05,27,08,16,10.40
2016,05,27,08,17,10.40
2016,05,27,08,18,10.40
2016,05,27,08,19,10.50
2016,05,27,08,20,10.50
2016,05,27,08,21,10.60
2016,05,27,08,22,10.60
2016,05,27,08,23,10.60
2016,05,27,08,24,10.70
2016,05,27,08,25,10.80
2016,05,27,08,26,10.80
2016,05,27,08,27,10.90
2016,05,27,08,28,11.10
2016,05,27,08,29,11.20
2016,05,27,08,30,11.30
2016,05,27,08,31,11.40
2016,05,27,08,32,11.40
2016,05,27,08,33,11.50
2016,05,27,08,34,11.60
2016,05,27,08,35,11.70
2016,05,27,08,36,11.80
2016,05,27,08,37,11.90
2016,05,27,08,38,11.90
2016,05,27,08,39,12.00
2016,05,27,08,40,12.10
2016,05,27,08,41,12.20
2016,05,27,08,42,12.30
2016,05,27,08,43,12.40
2016,05,27,08,44,12.40
2016,05,27,08,45,12.50
2016,05,27,08,46,12.50
2016,05,27,08,47,12.60
2016,05,27,08,48,12.70
2016,05,27,08,49,12.70
2016,05,27,08,50,12.70
2016,05,27,08,51,12.70
2016,05,27,08,52,12.80
2016,05,27,08,53,12.80
2016,05,27,08,54,12.90
2016,05,27,08,55,13.00
2016,05,27,08,56,13.10
2016,05,27,08,57,13.10
2016,05,27,08,58,13.20
2016,05,27,08,59,13.10
2016,05,27,09,00,13.00
2016,05,27,09,01,12.90
2016,05,27,09,02,12.90
2016,05,27,09,03,12.80
2016,05,27,09,04,12.80
2016,05,27,09,05,12.90
2016,05,27,09,06,12.90
2016,05,27,09,07,12.90
2016,05,27,09,08,12.90
2016,05,27,09,09,12.90
2016,05,27,09,10,12.90
2016,05,27,09,11,12.90
2016,05,27,09,12,12.90
2016,05,27,09,13,12.90
2016,05,27,09,14,12.80
2016,05,27,09,15,12.80
2016,05,27,09,16,12.80
2016,05,27,09,17,12.80
2016,05,27,09,18,12.80
2016,05,27,09,19,12.90
2016,05,27,09,20,12.90
2016,05,27,09,21,13.00
2016,05,27,09,22,13.10
2016,05,27,09,23,13.20
2016,05,27,09,24,13.30
2016,05,27,09,25,13.40
2016,05,27,09,26,13.50
2016,05,27,09,27,13.60
2016,05,27,09,28,13.60
2016,05,27,09,29,13.70
2016,05,27,09,30,13.70
2016,05,27,09,31,13.80
2016,05,27,09,32,13.90
2016,05,27,09,33,14.00
2016,05,27,09,34,14.10
2016,05,27,09,35,14.10
2016,05,27,09,36,14.10
2016,05,27,09,37,14.00
2016,05,27,09,38,13.90
2016,05,27,09,39,13.90
2016,05,27,09,40,13.90
2016,05,27,09,41,13.90
2016,05,27,09,42,13.90
2016,05,27,09,43,13.90
2016,05,27,09,44,13.80
2016,05,27,09,45,13.80
2016,05,27,09,46,13.80
2016,05,27,09,47,13.80
2016,05,27,09,48,13.80
2016,05,27,09,49,13.70
2016,05,27,09,50,13.60
2016,05,27,09,51,13.50
2016,05,27,09,52,13.50
2016,05,27,09,53,13.40
2016,05,27,09,54,13.30
2016,05,27,09,55,13.30
2016,05,27,09,56,13.20
2016,05,27,09,57,13.10
2016,05,27,09,58,13.10
2016,05,27,09,59,13.10
2016,05,27,10,00,13.10
2016,05,27,10,01,13.10
2016,05,27,10,02,13.10
2016,05,27,10,03,13.10
2016,05,27,10,04,13.20
2016,05,27,10,05,13.20
2016,05,27,10,06,13.20
2016,05,27,10,07,13.20
2016,05,27,10,08,13.20
2016,05,27,10,09,13.30
2016,05,27,10,10,13.40
2016,05,27,10,11,13.40
2016,05,27,10,12,13.40
2016,05,27,10,13,13.50
2016,05,27,10,14,13.50
2016,05,27,10,15,13.60
2016,05,27,10,16,13.60
2016,05,27,10,17,13.60
2016,05,27,10,18,13.60
2016,05,27,10,19,13.60
2016,05,27,10,20,13.70
2016,05,27,10,21,13.80
2016,05,27,10,22,13.90
2016,05,27,10,23,14.00
2016,05,27,10,24,14.10
2016,05,27,10,25,14.20
2016,05,27,10,26,14.30
2016,05,27,10,27,14.40
2016,05,27,10,28,14.60
2016,05,27,10,29,14.70
2016,05,27,10,30,14.70
2016,05,27,10,31,14.80
2016,05,27,10,32,14.90
2016,05,27,10,33,15.00
2016,05,27,10,34,14.90
2016,05,27,10,35,14.80
2016,05,27,10,36,14.70
2016,05,27,10,37,14.60
2016,05,27,10,38,14.60
2016,05,27,10,39,14.50
2016,05,27,10,40,14.50
2016,05,27,10,41,14.50
2016,05,27,10,42,14.60
2016,05,27,10,43,14.50
2016,05,27,10,44,14.50
2016,05,27,10,45,14.40
2016,05,27,10,46,14.30
2016,05,27,10,47,14.30
2016,05,27,10,48,14.30
2016,05,27,10,49,14.20
2016,05,27,10,50,14.10
2016,05,27,10,51,14.00
2016,05,27,10,52,13.90
2016,05,27,10,53,13.80
2016,05,27,10,54,13.80
2016,05,27,10,55,13.70
2016,05,27,10,56,13.60
2016,05,27,10,57,13.60
2016,05,27,10,58,13.60
2016,05,27,10,59,13.60
2016,05,27,11,00,13.50
2016,05,27,11,01,13.50
2016,05,27,11,02,13.50
2016,05,27,11,03,13.40
2016,05,27,11,04,13.30
2016,05,27,11,05,13.30
2016,05,27,11,06,13.30
2016,05,27,11,07,13.40
2016,05,27,11,08,13.40
2016,05,27,11,09,13.40
2016,05,27,11,10,13.40
2016,05,27,11,11,13.40
2016,05,27,11,12,13.50
2016,05,27,11,13,13.50
2016,05,27,11,14,13.50
2016,05,27,11,15,13.60
2016,05,27,11,16,13.60
2016,05,27,11,17,13.60
2016,05,27,11,18,13.60
2016,05,27,11,19,13.70
2016,05,27,11,20,13.70
2016,05,27,11,21,13.70
2016,05,27,11,22,13.70
2016,05,27,11,23,13.70
2016,05,27,11,24,13.70
2016,05,27,11,25,13.70
2016,05,27,11,26,13.80
2016,05,27,11,27,13.70
2016,05,27,11,28,13.70
2016,05,27,11,29,13.60
2016,05,27,11,30,13.50
2016,05,27,11,31,13.50
2016,05,27,11,32,13.40
2016,05,27,11,33,13.30
2016,05,27,11,34,13.30
2016,05,27,11,35,13.30
2016,05,27,11,36,13.30
2016,05,27,11,37,13.30
2016,05,27,11,38,13.20
2016,05,27,11,39,13.30
2016,05,27,11,40,13.30
2016,05,27,11,41,13.30
2016,05,27,11,42,13.30
2016,05,27,11,43,13.30
2016,05,27,11,44,13.30
2016,05,27,11,45,13.40
2016,05,27,11,46,13.40
2016,05,27,11,47,13.50
2016,05,27,11,48,13.50
2016,05,27,11,49,13.50
2016,05,27,11,50,13.50
2016,05,27,11,51,13.50
2016,05,27,11,52,13.50
2016,05,27,11,53,13.50
2016,05,27,11,54,13.40
2016,05,27,11,55,13.40
2016,05,27,11,56,13.40
2016,05,27,11,57,13.40
2016,05,27,11,58,13.40
2016,05,27,11,59,13.40
2016,05,27,12,00,13.50
2016,05,27,12,01,13.50
2016,05,27,12,02,13.60
2016,05,27,12,03,13.60
2016,05,27,12,04,13.60
2016,05,27,12,05,13.70
2016,05,27,12,06,13.70
2016,05,27,12,07,13.70
2016,05,27,12,08,13.80
2016,05,27,12,09,13.80
2016,05,27,12,10,13.80
2016,05,27,12,11,13.90
2016,05,27,12,12,13.90
2016,05,27,12,13,13.90
2016,05,27,12,14,13.90
2016,05,27,12,15,14.00
2016,05,27,12,16,14.00
2016,05,27,12,17,14.00
2016,05,27,12,18,14.00
2016,05,27,12,19,14.00
2016,05,27,12,20,14.00
2016,05,27,12,21,14.00
2016,05,27,12,22,14.00
2016,05,27,12,23,14.10
2016,05,27,12,24,14.10
2016,05,27,12,25,14.10
2016,05,27,12,26,14.10
2016,05,27,12,27,14.10
2016,05,27,12,28,14.10
2016,05,27,12,29,14.20
2016,05,27,12,30,14.20
2016,05,27,12,31,14.20
2016,05,27,12,32,14.30
2016,05,27,12,33,14.30
2016,05,27,12,34,14.20
2016,05,27,12,35,14.20
2016,05,27,12,36,14.20
2016,05,27,12,37,14.20
2016,05,27,12,38,14.20
2016,05,27,12,39,14.30
2016,05,27,12,40,14.30
2016,05,27,12,41,14.30
2016,05,27,12,42,14.40
2016,05,27,12,43,14.40
2016,05,27,12,44,14.50
2016,05,27,12,45,14.50
2016,05,27,12,46,14.60
2016,05,27,12,47,14.70
2016,05,27,12,48,14.70
2016,05,27,12,49,14.80
2016,05,27,12,50,14.80
2016,05,27,12,51,14.90
2016,05,27,12,52,14.90
2016,05,27,12,53,14.90
2016,05,27,12,54,14.90
2016,05,27,12,55,14.90
2016,05,27,12,56,14.90
2016,05,27,12,57,14.90
2016,05,27,12,58,14.80
2016,05,27,12,59,14.80
2016,05,27,13,00,14.70
2016,05,27,13,01,14.70
2016,05,27,13,02,14.70
2016,05,27,13,03,14.60
2016,05,27,13,04,14.60
2016,05,27,13,05,14.50
2016,05,27,13,06,14.50
2016,05,27,13,07,14.50
2016,05,27,13,08,14.50
2016,05,27,13,09,14.50
2016,05,27,13,10,14.50
2016,05,27,13,11,14.50
2016,05,27,13,12,14.50
2016,05,27,13,13,14.60
2016,05,27,13,14,14.60
2016,05,27,13,15,14.60
2016,05,27,13,16,14.60
2016,05,27,13,17,14.70
2016,05,27,13,18,14.60
2016,05,27,13,19,14.70
2016,05,27,13,20,14.70
2016,05,27,13,21,14.60
2016,05,27,13,22,14.60
2016,05,27,13,23,14.60
2016,05,27,13,24,14.70
2016,05,27,13,25,14.70
2016,05,27,13,26,14.80
2016,05,27,13,27,14.80
2016,05,27,13,28,14.80
2016,05,27,13,29,14.70
2016,05,27,13,30,14.70
2016,05,27,13,31,14.70
2016,05,27,13,32,14.70
2016,05,27,13,33,14.70
2016,05,27,13,34,14.60
2016,05,27,13,35,14.60
2016,05,27,13,36,14.60
2016,05,27,13,37,14.60
2016,05,27,13,38,14.50
2016,05,27,13,39,14.50
2016,05,27,13,40,14.40
2016,05,27,13,41,14.40
2016,05,27,13,42,14.40
2016,05,27,13,43,14.40
2016,05,27,13,44,14.30
2016,05,27,13,45,14.30
2016,05,27,13,46,14.20
2016,05,27,13,47,14.20
2016,05,27,13,48,14.20
2016,05,27,13,49,14.20
2016,05,27,13,50,14.10
2016,05,27,13,51,14.10
2016,05,27,13,52,14.10
2016,05,27,13,53,14.10
2016,05,27,13,54,14.10
2016,05,27,13,55,14.00
2016,05,27,13,56,14.00
2016,05,27,13,57,14.00
2016,05,27,13,58,13.90
2016,05,27,13,59,13.90
2016,05,27,14,00,13.90
2016,05,27,14,01,13.90
2016,05,27,14,02,13.90
2016,05,27,14,03,13.90
2016,05,27,14,04,13.90
2016,05,27,14,05,13.90
2016,05,27,14,06,14.00
2016,05,27,14,07,13.90
2016,05,27,14,08,13.90
2016,05,27,14,09,13.90
2016,05,27,14,10,13.90
2016,05,27,14,11,13.80
2016,05,27,14,12,13.80
2016,05,27,14,13,13.80
2016,05,27,14,14,13.80
2016,05,27,14,15,13.80
2016,05,27,14,16,13.80
2016,05,27,14,17,13.70
2016,05,27,14,18,13.70
2016,05,27,14,19,13.70
2016,05,27,14,20,13.70
2016,05,27,14,21,13.70
2016,05,27,14,22,13.70
2016,05,27,14,23,13.70
2016,05,27,14,24,13.60
2016,05,27,14,25,13.60
2016,05,27,14,26,13.60
2016,05,27,14,27,13.60
2016,05,27,14,28,13.60
2016,05,27,14,29,13.50
2016,05,27,14,30,13.50
2016,05,27,14,31,13.50
2016,05,27,14,32,13.50
2016,05,27,14,33,13.50
2016,05,27,14,34,13.50
2016,05,27,14,35,13.50
2016,05,27,14,36,13.60
2016,05,27,14,37,13.60
2016,05,27,14,38,13.70
2016,05,27,14,39,13.70
2016,05,27,14,40,13.70
2016,05,27,14,41,13.70
2016,05,27,14,42,13.70
2016,05,27,14,43,13.70
2016,05,27,14,44,13.60
2016,05,27,14,45,13.60
2016,05,27,14,46,13.60
2016,05,27,14,47,13.60
2016,05,27,14,48,13.60
2016,05,27,14,49,13.50
2016,05,27,14,50,13.50
2016,05,27,14,51,13.40
2016,05,27,14,52,13.40
2016,05,27,14,53,13.40
2016,05,27,14,54,13.40
2016,05,27,14,55,13.40
2016,05,27,14,56,13.40
2016,05,27,14,57,13.40
2016,05,27,14,58,13.40
2016,05,27,14,59,13.40
2016,05,27,15,00,13.40
2016,05,27,15,01,13.40
2016,05,27,15,02,13.40
2016,05,27,15,03,13.50
2016,05,27,15,04,13.50
2016,05,27,15,05,13.40
2016,05,27,15,06,13.40
2016,05,27,15,07,13.40
2016,05,27,15,08,13.40
2016,05,27,15,09,13.40
2016,05,27,15,10,13.40
2016,05,27,15,11,13.40
2016,05,27,15,12,13.40
2016,05,27,15,13,13.40
2016,05,27,15,14,13.40
2016,05,27,15,15,13.40
2016,05,27,15,16,13.30
2016,05,27,15,17,13.40
2016,05,27,15,18,13.40
2016,05,27,15,19,13.40
2016,05,27,15,20,13.40
2016,05,27,15,21,13.40
2016,05,27,15,22,13.40
2016,05,27,15,23,13.40
2016,05,27,15,24,13.40
2016,05,27,15,25,13.40
2016,05,27,15,26,13.40
2016,05,27,15,27,13.40
2016,05,27,15,28,13.40
2016,05,27,15,29,13.40
2016,05,27,15,30,13.40
2016,05,27,15,31,13.30
2016,05,27,15,32,13.30
2016,05,27,15,33,13.30
2016,05,27,15,34,13.20
2016,05,27,15,35,13.20
2016,05,27,15,36,13.10
2016,05,27,15,37,13.10
2016,05,27,15,38,13.10
2016,05,27,15,39,13.10
2016,05,27,15,40,13.00
2016,05,27,15,41,13.00
2016,05,27,15,42,13.00
2016,05,27,15,43,12.90
2016,05,27,15,44,12.90
2016,05,27,15,45,12.90
2016,05,27,15,46,12.90
2016,05,27,15,47,13.00
2016,05,27,15,48,13.00
2016,05,27,15,49,13.00
2016,05,27,15,50,13.00
2016,05,27,15,51,13.00
2016,05,27,15,52,13.00
2016,05,27,15,53,13.00
2016,05,27,15,54,13.00
2016,05,27,15,55,13.00
2016,05,27,15,56,13.00
2016,05,27,15,57,13.00
2016,05,27,15,58,13.00
2016,05,27,15,59,13.10
2016,05,27,16,00,13.00
2016,05,27,16,01,13.00
2016,05,27,16,02,13.00
2016,05,27,16,03,13.00
2016,05,27,16,04,13.00
2016,05,27,16,05,13.00
2016,05,27,16,06,13.10
2016,05,27,16,07,13.10
2016,05,27,16,08,13.10
2016,05,27,16,09,13.10
2016,05,27,16,10,13.10
2016,05,27,16,11,13.10
2016,05,27,16,12,13.00
2016,05,27,16,13,13.00
2016,05,27,16,14,13.00
2016,05,27,16,15,13.00
2016,05,27,16,16,12.90
2016,05,27,16,17,12.90
2016,05,27,16,18,12.90
2016,05,27,16,19,12.90
2016,05,27,16,20,12.90
2016,05,27,16,21,12.80
2016,05,27,16,22,12.80
2016,05,27,16,23,12.80
2016,05,27,16,24,12.90
2016,05,27,16,25,12.90
2016,05,27,16,26,12.90
2016,05,27,16,27,12.90
2016,05,27,16,28,12.90
2016,05,27,16,29,12.80
2016,05,27,16,30,12.80
2016,05,27,16,31,12.80
2016,05,27,16,32,12.70
2016,05,27,16,33,12.70
2016,05,27,16,34,12.70
2016,05,27,16,35,12.60
2016,05,27,16,36,12.60
2016,05,27,16,37,12.60
2016,05,27,16,38,12.50
2016,05,27,16,39,12.60
2016,05,27,16,40,12.60
2016,05,27,16,41,12.60
2016,05,27,16,42,12.60
2016,05,27,16,43,12.60
2016,05,27,16,44,12.50
2016,05,27,16,45,12.50
2016,05,27,16,46,12.50
2016,05,27,16,47,12.40
2016,05,27,16,48,12.40
2016,05,27,16,49,12.40
2016,05,27,16,50,12.40
2016,05,27,16,51,12.40
2016,05,27,16,52,12.40
2016,05,27,16,53,12.40
2016,05,27,16,54,12.40
2016,05,27,16,55,12.30
2016,05,27,16,56,12.30
2016,05,27,16,57,12.30
2016,05,27,16,58,12.30
2016,05,27,16,59,12.30
2016,05,27,17,00,12.30
2016,05,27,17,01,12.30
2016,05,27,17,02,12.30
2016,05,27,17,03,12.30
2016,05,27,17,04,12.20
2016,05,27,17,05,12.20
2016,05,27,17,06,12.20
2016,05,27,17,07,12.10
2016,05,27,17,08,12.10
2016,05,27,17,09,12.10
2016,05,27,17,10,12.10
2016,05,27,17,11,12.00
2016,05,27,17,12,11.90
2016,05,27,17,13,11.90
2016,05,27,17,14,11.80
2016,05,27,17,15,11.80
2016,05,27,17,16,11.80
2016,05,27,17,17,11.80
2016,05,27,17,18,11.80
2016,05,27,17,19,11.80
2016,05,27,17,20,11.70
2016,05,27,17,21,11.70
2016,05,27,17,22,11.70
2016,05,27,17,23,11.70
2016,05,27,17,24,11.80
2016,05,27,17,25,11.70
2016,05,27,17,26,11.70
2016,05,27,17,27,11.70
2016,05,27,17,28,11.70
2016,05,27,17,29,11.70
2016,05,27,17,30,11.70
2016,05,27,17,31,11.60
2016,05,27,17,32,11.60
2016,05,27,17,33,11.50
2016,05,27,17,34,11.50
2016,05,27,17,35,11.50
2016,05,27,17,36,11.40
2016,05,27,17,37,11.40
2016,05,27,17,38,11.30
2016,05,27,17,39,11.30